Time,TemperatureF,DewpointF,PressureIn,WindDirection,WindDirectionDegrees,WindSpeedMPH,WindSpeedGustMPH,Humidity,HourlyPrecipIn,Conditions,Clouds,dailyrainin,SoftwareType,DateUTC
2013-03-24 00:02:00,18.6,18.0,25.74,SSW,202,3.0,3.3,93,0.00,,,0.00,Rainwise IP-100,2013-03-24 07:02:00,
2013-03-24 00:07:00,18.6,18.0,25.74,South,180,0.0,3.5,93,0.00,,,0.00,Rainwise IP-100,2013-03-24 07:07:00,
2013-03-24 00:12:00,18.5,18.0,25.74,South,180,0.0,1.4,94,0.00,,,0.00,Rainwise IP-100,2013-03-24 07:12:00,
2013-03-24 00:17:00,18.5,18.0,25.74,SSW,202,0.0,3.5,94,0.00,,,0.00,Rainwise IP-100,2013-03-24 07:17:00,
2013-03-24 00:22:00,18.4,16.0,25.74,SSW,202,0.0,3.3,94,0.00,,,0.00,Rainwise IP-100,2013-03-24 07:22:00,
2013-03-24 00:27:00,18.4,16.0,25.74,SSW,202,0.0,3.3,94,0.00,,,0.00,Rainwise IP-100,2013-03-24 07:27:00,
2013-03-24 00:32:00,18.3,16.0,25.74,South,180,1.6,4.0,94,0.00,,,0.00,Rainwise IP-100,2013-03-24 07:32:00,
2013-03-24 00:37:00,18.3,16.0,25.74,SSW,202,0.0,3.0,94,0.00,,,0.00,Rainwise IP-100,2013-03-24 07:37:00,
2013-03-24 00:42:00,18.3,16.0,25.74,SSW,202,0.0,1.9,94,0.00,,,0.00,Rainwise IP-100,2013-03-24 07:42:00,
2013-03-24 00:47:00,18.3,16.0,25.74,SSW,202,1.2,1.2,94,0.00,,,0.00,Rainwise IP-100,2013-03-24 07:47:00,
2013-03-24 00:52:00,18.4,18.0,25.74,South,180,0.0,2.8,95,0.00,,,0.00,Rainwise IP-100,2013-03-24 07:52:00,
2013-03-24 00:57:00,18.4,18.0,25.74,South,180,0.0,2.6,95,0.00,,,0.00,Rainwise IP-100,2013-03-24 07:57:00,
2013-03-24 01:02:00,18.4,18.0,25.74,SSW,202,0.0,3.7,95,0.00,,,0.00,Rainwise IP-100,2013-03-24 08:02:00,
2013-03-24 01:07:00,18.5,18.0,25.74,SSW,202,0.0,1.4,95,0.00,,,0.00,Rainwise IP-100,2013-03-24 08:07:00,
2013-03-24 01:12:00,18.5,18.0,25.74,SSE,157,0.0,2.8,95,0.00,,,0.00,Rainwise IP-100,2013-03-24 08:12:00,
2013-03-24 01:17:00,18.6,18.0,25.74,SSE,157,2.8,2.8,95,0.00,,,0.00,Rainwise IP-100,2013-03-24 08:17:00,
2013-03-24 01:22:00,18.6,18.0,25.74,South,180,0.0,2.8,95,0.00,,,0.00,Rainwise IP-100,2013-03-24 08:22:00,
2013-03-24 01:27:00,18.6,21.0,25.74,SSW,202,0.0,2.1,96,0.00,,,0.00,Rainwise IP-100,2013-03-24 08:27:00,
2013-03-24 01:32:00,18.5,18.0,25.74,SSW,202,0.0,1.4,95,0.00,,,0.00,Rainwise IP-100,2013-03-24 08:32:00,
2013-03-24 01:37:00,18.5,18.0,25.74,SSW,202,0.0,2.6,95,0.00,,,0.00,Rainwise IP-100,2013-03-24 08:37:00,
2013-03-24 01:42:00,18.5,18.0,25.74,SSW,202,0.0,0.0,95,0.00,,,0.00,Rainwise IP-100,2013-03-24 08:42:00,
2013-03-24 01:47:00,18.4,18.0,25.74,SSW,202,0.0,1.6,95,0.00,,,0.00,Rainwise IP-100,2013-03-24 08:47:00,
2013-03-24 01:52:00,18.7,21.0,25.74,SE,135,0.0,3.0,96,0.00,,,0.00,Rainwise IP-100,2013-03-24 08:52:00,
2013-03-24 01:57:00,19.2,21.0,25.74,SSW,202,0.0,3.3,96,0.00,,,0.00,Rainwise IP-100,2013-03-24 08:57:00,
2013-03-24 02:02:00,19.4,18.0,25.74,SSE,157,0.0,1.6,95,0.00,,,0.00,Rainwise IP-100,2013-03-24 09:02:00,
2013-03-24 02:07:00,19.3,18.0,25.74,SSW,202,0.0,2.3,95,0.00,,,0.00,Rainwise IP-100,2013-03-24 09:07:00,
2013-03-24 02:12:00,19.2,18.0,25.74,SSW,202,0.0,4.0,95,0.00,,,0.00,Rainwise IP-100,2013-03-24 09:12:00,
2013-03-24 02:17:00,19.1,18.0,25.74,SE,135,0.0,1.6,94,0.00,,,0.00,Rainwise IP-100,2013-03-24 09:17:00,
2013-03-24 02:22:00,19.2,18.0,25.74,SE,135,0.0,2.8,95,0.00,,,0.00,Rainwise IP-100,2013-03-24 09:22:00,
2013-03-24 02:27:00,19.5,18.0,25.74,SE,135,1.6,2.8,95,0.00,,,0.00,Rainwise IP-100,2013-03-24 09:27:00,
2013-03-24 02:33:00,19.5,18.0,25.74,SE,135,0.0,2.8,94,0.00,,,0.00,Rainwise IP-100,2013-03-24 09:33:00,
2013-03-24 02:38:00,19.4,18.0,25.74,SE,135,0.0,2.6,95,0.00,,,0.00,Rainwise IP-100,2013-03-24 09:38:00,
2013-03-24 02:43:00,19.5,18.0,25.74,SE,135,3.0,3.7,95,0.00,,,0.00,Rainwise IP-100,2013-03-24 09:43:00,
2013-03-24 02:48:00,19.9,18.0,25.74,SE,135,2.8,4.0,95,0.00,,,0.00,Rainwise IP-100,2013-03-24 09:48:00,
2013-03-24 02:53:00,20.2,18.0,25.74,SE,135,0.0,3.5,94,0.00,,,0.00,Rainwise IP-100,2013-03-24 09:53:00,
2013-03-24 02:58:00,20.1,18.0,25.74,SE,135,1.9,4.7,94,0.00,,,0.00,Rainwise IP-100,2013-03-24 09:58:00,
2013-03-24 03:03:00,20.1,18.0,25.74,SE,135,1.4,3.7,94,0.00,,,0.00,Rainwise IP-100,2013-03-24 10:03:00,
2013-03-24 03:08:00,20.2,18.0,25.74,SSW,202,0.0,3.5,94,0.00,,,0.00,Rainwise IP-100,2013-03-24 10:08:00,
2013-03-24 03:13:00,20.3,18.0,25.74,SE,135,4.2,4.2,93,0.00,,,0.00,Rainwise IP-100,2013-03-24 10:13:00,
2013-03-24 03:18:00,20.6,18.0,25.74,SE,135,1.6,4.2,93,0.00,,,0.00,Rainwise IP-100,2013-03-24 10:18:00,
2013-03-24 03:23:00,21.1,18.0,25.74,SE,135,1.9,4.4,93,0.00,,,0.00,Rainwise IP-100,2013-03-24 10:23:00,
2013-03-24 03:28:00,21.3,18.0,25.74,SE,135,1.2,3.7,92,0.00,,,0.00,Rainwise IP-100,2013-03-24 10:28:00,
2013-03-24 03:33:00,21.4,18.0,25.74,SE,135,2.3,5.6,91,0.00,,,0.00,Rainwise IP-100,2013-03-24 10:33:00,
2013-03-24 03:38:00,21.6,21.0,25.74,SE,135,2.6,4.2,91,0.00,,,0.00,Rainwise IP-100,2013-03-24 10:38:00,
2013-03-24 03:43:00,21.7,21.0,25.73,ESE,112,1.9,3.5,91,0.00,,,0.00,Rainwise IP-100,2013-03-24 10:43:00,
2013-03-24 03:48:00,21.6,21.0,25.74,SE,135,2.6,3.0,91,0.00,,,0.00,Rainwise IP-100,2013-03-24 10:48:00,
2013-03-24 03:53:00,21.7,21.0,25.74,SE,135,0.0,4.0,91,0.00,,,0.00,Rainwise IP-100,2013-03-24 10:53:00,
2013-03-24 03:58:00,21.8,21.0,25.74,SE,135,0.0,4.0,91,0.00,,,0.00,Rainwise IP-100,2013-03-24 10:58:00,
2013-03-24 04:03:00,21.7,21.0,25.74,SE,135,0.0,3.5,91,0.00,,,0.00,Rainwise IP-100,2013-03-24 11:03:00,
2013-03-24 04:08:00,21.6,21.0,25.74,SE,135,0.0,3.3,91,0.00,,,0.00,Rainwise IP-100,2013-03-24 11:08:00,
2013-03-24 04:13:00,21.7,21.0,25.74,SSW,202,0.0,4.4,91,0.00,,,0.00,Rainwise IP-100,2013-03-24 11:13:00,
2013-03-24 04:18:00,21.8,21.0,25.74,ESE,112,2.1,5.1,91,0.00,,,0.00,Rainwise IP-100,2013-03-24 11:18:00,
2013-03-24 04:23:00,21.6,21.0,25.74,SE,135,3.0,3.3,91,0.00,,,0.00,Rainwise IP-100,2013-03-24 11:23:00,
2013-03-24 04:28:00,21.5,21.0,25.74,ESE,112,2.3,3.5,91,0.00,,,0.00,Rainwise IP-100,2013-03-24 11:28:00,
2013-03-24 04:33:00,21.6,21.0,25.74,ESE,112,1.4,3.5,91,0.00,,,0.00,Rainwise IP-100,2013-03-24 11:33:00,
2013-03-24 04:38:00,21.8,21.0,25.74,ESE,112,0.0,4.4,90,0.00,,,0.00,Rainwise IP-100,2013-03-24 11:38:00,
2013-03-24 04:43:00,22.0,21.0,25.74,ESE,112,2.3,5.4,90,0.00,,,0.00,Rainwise IP-100,2013-03-24 11:43:00,
2013-03-24 04:48:00,22.0,21.0,25.74,SE,135,0.0,4.2,90,0.00,,,0.00,Rainwise IP-100,2013-03-24 11:48:00,
2013-03-24 04:53:00,21.8,21.0,25.74,ESE,112,1.2,4.4,90,0.00,,,0.00,Rainwise IP-100,2013-03-24 11:53:00,
2013-03-24 04:58:00,21.6,21.0,25.73,ESE,112,0.0,3.5,90,0.00,,,0.00,Rainwise IP-100,2013-03-24 11:58:00,
2013-03-24 05:03:00,21.5,21.0,25.73,SE,135,2.1,3.5,90,0.00,,,0.00,Rainwise IP-100,2013-03-24 12:03:00,
2013-03-24 05:08:00,21.5,21.0,25.73,SE,135,1.9,4.0,91,0.00,,,0.00,Rainwise IP-100,2013-03-24 12:08:00,
2013-03-24 05:13:00,21.7,21.0,25.73,SE,135,3.5,4.0,91,0.00,,,0.00,Rainwise IP-100,2013-03-24 12:13:00,
2013-03-24 05:18:00,21.8,21.0,25.73,SE,135,2.1,4.4,91,0.00,,,0.00,Rainwise IP-100,2013-03-24 12:18:00,
2013-03-24 05:23:00,21.7,21.0,25.74,SE,135,2.3,4.4,91,0.00,,,0.00,Rainwise IP-100,2013-03-24 12:23:00,
2013-03-24 05:28:00,21.7,21.0,25.74,SE,135,0.0,3.7,91,0.00,,,0.00,Rainwise IP-100,2013-03-24 12:28:00,
2013-03-24 05:33:00,21.9,21.0,25.74,ESE,112,1.2,4.4,91,0.00,,,0.00,Rainwise IP-100,2013-03-24 12:33:00,
2013-03-24 05:38:00,21.9,21.0,25.74,SE,135,1.2,4.4,90,0.00,,,0.00,Rainwise IP-100,2013-03-24 12:38:00,
2013-03-24 05:43:00,21.9,21.0,25.74,SE,135,0.0,4.4,90,0.00,,,0.00,Rainwise IP-100,2013-03-24 12:43:00,
2013-03-24 05:48:00,21.8,21.0,25.74,ESE,112,0.0,4.2,90,0.00,,,0.00,Rainwise IP-100,2013-03-24 12:48:00,
2013-03-24 05:53:00,21.8,21.0,25.74,SE,135,0.0,3.7,91,0.00,,,0.00,Rainwise IP-100,2013-03-24 12:53:00,
2013-03-24 05:58:00,21.8,21.0,25.74,ESE,112,1.2,3.0,91,0.00,,,0.00,Rainwise IP-100,2013-03-24 12:58:00,
2013-03-24 06:03:00,21.6,21.0,25.74,ESE,112,1.4,4.0,91,0.00,,,0.00,Rainwise IP-100,2013-03-24 13:03:00,
2013-03-24 06:08:00,21.4,18.0,25.74,ESE,112,2.1,3.7,91,0.00,,,0.00,Rainwise IP-100,2013-03-24 13:08:00,
2013-03-24 06:13:00,21.3,18.0,25.74,SE,135,2.3,3.7,91,0.00,,,0.00,Rainwise IP-100,2013-03-24 13:13:00,
2013-03-24 06:18:00,21.2,18.0,25.74,SE,135,1.9,3.3,91,0.00,,,0.00,Rainwise IP-100,2013-03-24 13:18:00,
2013-03-24 06:23:00,21.1,18.0,25.73,SE,135,1.4,3.3,91,0.00,,,0.00,Rainwise IP-100,2013-03-24 13:23:00,
2013-03-24 06:28:00,21.2,18.0,25.74,ESE,112,1.4,2.8,92,0.00,,,0.00,Rainwise IP-100,2013-03-24 13:28:00,
2013-03-24 06:33:00,21.1,18.0,25.74,ESE,112,2.3,4.2,92,0.00,,,0.00,Rainwise IP-100,2013-03-24 13:33:00,
2013-03-24 06:38:00,21.3,18.0,25.74,SE,135,2.8,4.7,92,0.00,,,0.00,Rainwise IP-100,2013-03-24 13:38:00,
2013-03-24 06:43:00,21.6,21.0,25.74,SE,135,1.2,3.5,91,0.00,,,0.00,Rainwise IP-100,2013-03-24 13:43:00,
2013-03-24 06:48:00,21.6,21.0,25.74,SE,135,0.0,3.3,91,0.00,,,0.00,Rainwise IP-100,2013-03-24 13:48:00,
2013-03-24 06:53:00,21.4,18.0,25.74,SE,135,1.4,3.5,91,0.00,,,0.00,Rainwise IP-100,2013-03-24 13:53:00,
2013-03-24 06:58:00,21.2,18.0,25.74,SE,135,3.7,3.7,91,0.00,,,0.00,Rainwise IP-100,2013-03-24 13:58:00,
2013-03-24 07:03:00,21.3,18.0,25.74,SE,135,2.8,4.4,91,0.00,,,0.00,Rainwise IP-100,2013-03-24 14:03:00,
2013-03-24 07:08:00,21.5,21.0,25.74,SE,135,2.6,4.2,90,0.00,,,0.00,Rainwise IP-100,2013-03-24 14:08:00,
2013-03-24 07:14:00,21.6,21.0,25.74,SE,135,3.3,4.0,90,0.00,,,0.00,Rainwise IP-100,2013-03-24 14:14:00,
2013-03-24 07:19:00,21.6,21.0,25.74,ESE,112,3.5,4.4,90,0.00,,,0.00,Rainwise IP-100,2013-03-24 14:19:00,
2013-03-24 07:24:00,21.7,21.0,25.74,ESE,112,0.0,5.1,89,0.00,,,0.00,Rainwise IP-100,2013-03-24 14:24:00,
2013-03-24 07:29:00,21.7,21.0,25.74,SE,135,2.6,4.2,89,0.00,,,0.00,Rainwise IP-100,2013-03-24 14:29:00,
2013-03-24 07:34:00,21.7,21.0,25.74,SE,135,3.3,4.9,89,0.00,,,0.00,Rainwise IP-100,2013-03-24 14:34:00,
2013-03-24 07:39:00,21.7,21.0,25.74,ESE,112,0.0,4.0,89,0.00,,,0.00,Rainwise IP-100,2013-03-24 14:39:00,
2013-03-24 07:44:00,21.8,21.0,25.75,SE,135,2.8,4.4,89,0.00,,,0.00,Rainwise IP-100,2013-03-24 14:44:00,
2013-03-24 07:49:00,22.0,21.0,25.74,ESE,112,2.8,3.3,89,0.00,,,0.00,Rainwise IP-100,2013-03-24 14:49:00,
2013-03-24 07:54:00,21.9,21.0,25.74,SE,135,2.8,3.5,88,0.00,,,0.00,Rainwise IP-100,2013-03-24 14:54:00,
2013-03-24 07:59:00,22.1,21.0,25.74,SE,135,2.1,3.7,88,0.00,,,0.00,Rainwise IP-100,2013-03-24 14:59:00,
2013-03-24 08:04:00,22.3,21.0,25.74,SE,135,1.9,3.7,88,0.00,,,0.00,Rainwise IP-100,2013-03-24 15:04:00,
2013-03-24 08:09:00,22.7,18.0,25.75,SE,135,2.3,4.4,87,0.00,,,0.00,Rainwise IP-100,2013-03-24 15:09:00,
2013-03-24 08:14:00,23.1,18.0,25.74,ESE,112,0.0,3.7,86,0.00,,,0.00,Rainwise IP-100,2013-03-24 15:14:00,
2013-03-24 08:19:00,23.5,21.0,25.75,SE,135,2.1,3.5,86,0.00,,,0.00,Rainwise IP-100,2013-03-24 15:19:00,
2013-03-24 08:24:00,23.8,21.0,25.75,SE,135,2.8,4.2,86,0.00,,,0.00,Rainwise IP-100,2013-03-24 15:24:00,
2013-03-24 08:29:00,24.0,21.0,25.74,SSW,202,0.0,4.9,85,0.00,,,0.00,Rainwise IP-100,2013-03-24 15:29:00,
2013-03-24 08:34:00,24.4,21.0,25.74,SE,135,1.9,5.1,83,0.00,,,0.00,Rainwise IP-100,2013-03-24 15:34:00,
2013-03-24 08:39:00,24.6,23.0,25.75,SE,135,2.1,3.5,83,0.00,,,0.00,Rainwise IP-100,2013-03-24 15:39:00,
2013-03-24 08:44:00,24.7,23.0,25.75,SE,135,1.4,3.3,84,0.00,,,0.00,Rainwise IP-100,2013-03-24 15:44:00,
2013-03-24 08:49:00,24.8,23.0,25.75,SE,135,1.2,3.3,84,0.00,,,0.00,Rainwise IP-100,2013-03-24 15:49:00,
2013-03-24 08:54:00,24.9,23.0,25.75,SE,135,1.2,2.8,84,0.00,,,0.00,Rainwise IP-100,2013-03-24 15:54:00,
2013-03-24 08:59:00,25.0,23.0,25.75,SE,135,1.2,3.3,84,0.00,,,0.00,Rainwise IP-100,2013-03-24 15:59:00,
2013-03-24 09:04:00,25.1,23.0,25.75,SE,135,1.9,3.0,84,0.00,,,0.00,Rainwise IP-100,2013-03-24 16:04:00,
2013-03-24 09:09:00,25.1,23.0,25.75,SE,135,0.0,3.3,83,0.00,,,0.00,Rainwise IP-100,2013-03-24 16:09:00,
2013-03-24 09:14:00,25.3,21.0,25.75,SSW,202,1.4,5.6,82,0.00,,,0.00,Rainwise IP-100,2013-03-24 16:14:00,
2013-03-24 09:19:00,25.5,21.0,25.75,SE,135,1.9,3.3,82,0.00,,,0.00,Rainwise IP-100,2013-03-24 16:19:00,
2013-03-24 09:24:00,25.4,23.0,25.75,ESE,112,0.0,3.0,83,0.00,,,0.00,Rainwise IP-100,2013-03-24 16:24:00,
2013-03-24 09:29:00,25.5,23.0,25.75,South,180,0.0,4.4,83,0.00,,,0.00,Rainwise IP-100,2013-03-24 16:29:00,
2013-03-24 09:34:00,25.7,21.0,25.76,SSE,157,1.2,4.7,82,0.00,,,0.00,Rainwise IP-100,2013-03-24 16:34:00,
2013-03-24 09:39:00,25.8,21.0,25.75,ESE,112,0.0,3.7,82,0.00,,,0.00,Rainwise IP-100,2013-03-24 16:39:00,
2013-03-24 09:44:00,26.0,21.0,25.75,SE,135,0.0,3.7,81,0.00,,,0.00,Rainwise IP-100,2013-03-24 16:44:00,
2013-03-24 09:49:00,26.2,21.0,25.75,SSW,202,0.0,5.8,80,0.00,,,0.00,Rainwise IP-100,2013-03-24 16:49:00,
2013-03-24 09:54:00,26.4,21.0,25.75,SSW,202,0.0,5.8,80,0.00,,,0.00,Rainwise IP-100,2013-03-24 16:54:00,
2013-03-24 09:59:00,26.6,23.0,25.75,SSW,202,0.0,5.6,79,0.00,,,0.00,Rainwise IP-100,2013-03-24 16:59:00,
2013-03-24 10:04:00,26.7,23.0,25.75,SE,135,0.0,5.1,78,0.00,,,0.00,Rainwise IP-100,2013-03-24 17:04:00,
2013-03-24 10:09:00,27.0,23.0,25.76,South,180,1.4,7.0,78,0.00,,,0.00,Rainwise IP-100,2013-03-24 17:09:00,
2013-03-24 10:14:00,27.4,21.0,25.76,SSW,202,1.9,8.2,74,0.00,,,0.00,Rainwise IP-100,2013-03-24 17:14:00,
2013-03-24 10:19:00,27.7,21.0,25.75,SSW,202,6.5,6.5,71,0.00,,,0.00,Rainwise IP-100,2013-03-24 17:19:00,
2013-03-24 10:24:00,28.0,21.0,25.76,SSW,202,2.1,7.0,70,0.00,,,0.00,Rainwise IP-100,2013-03-24 17:24:00,
2013-03-24 10:29:00,28.3,18.0,25.76,SSW,202,5.8,8.4,69,0.00,,,0.00,Rainwise IP-100,2013-03-24 17:29:00,
2013-03-24 10:34:00,28.5,21.0,25.76,SSW,202,4.4,9.8,69,0.00,,,0.00,Rainwise IP-100,2013-03-24 17:34:00,
2013-03-24 10:39:00,28.6,21.0,25.76,SSW,202,4.2,8.6,67,0.00,,,0.00,Rainwise IP-100,2013-03-24 17:39:00,
2013-03-24 10:44:00,28.7,21.0,25.76,WSW,247,5.1,12.1,67,0.00,,,0.00,Rainwise IP-100,2013-03-24 17:44:00,
2013-03-24 10:49:00,29.0,21.0,25.76,SSW,202,4.0,8.9,67,0.00,,,0.00,Rainwise IP-100,2013-03-24 17:49:00,
2013-03-24 10:54:00,29.1,21.0,25.76,SSW,202,8.2,8.9,67,0.00,,,0.00,Rainwise IP-100,2013-03-24 17:54:00,
2013-03-24 10:59:00,29.3,21.0,25.76,SSW,202,6.8,11.7,67,0.00,,,0.00,Rainwise IP-100,2013-03-24 17:59:00,
2013-03-24 11:04:00,29.3,21.0,25.75,SW,225,8.9,12.6,67,0.00,,,0.00,Rainwise IP-100,2013-03-24 18:04:00,
2013-03-24 11:09:00,29.2,21.0,25.76,SSW,202,5.6,11.2,67,0.00,,,0.00,Rainwise IP-100,2013-03-24 18:09:00,
2013-03-24 11:14:00,29.4,21.0,25.76,SSW,202,7.5,9.8,67,0.00,,,0.00,Rainwise IP-100,2013-03-24 18:14:00,
2013-03-24 11:19:00,29.8,21.0,25.76,SSW,202,7.5,10.5,67,0.00,,,0.00,Rainwise IP-100,2013-03-24 18:19:00,
2013-03-24 11:24:00,30.3,21.0,25.76,SSW,202,9.1,12.1,66,0.00,,,0.00,Rainwise IP-100,2013-03-24 18:24:00,
2013-03-24 11:29:00,30.4,21.0,25.76,SSW,202,6.1,13.1,65,0.00,,,0.00,Rainwise IP-100,2013-03-24 18:29:00,
2013-03-24 11:34:00,30.6,21.0,25.76,SSW,202,2.6,9.1,66,0.00,,,0.00,Rainwise IP-100,2013-03-24 18:34:00,
2013-03-24 11:39:00,30.8,21.0,25.76,SSW,202,6.8,11.0,66,0.00,,,0.00,Rainwise IP-100,2013-03-24 18:39:00,
2013-03-24 11:44:00,30.9,21.0,25.76,SSW,202,5.1,13.1,67,0.00,,,0.00,Rainwise IP-100,2013-03-24 18:44:00,
2013-03-24 11:49:00,30.8,21.0,25.76,SSW,202,4.0,11.2,67,0.00,,,0.00,Rainwise IP-100,2013-03-24 18:49:00,
2013-03-24 11:54:00,30.7,21.0,25.76,SSW,202,6.3,9.8,66,0.00,,,0.00,Rainwise IP-100,2013-03-24 18:54:00,
2013-03-24 11:59:00,30.8,21.0,25.76,SSW,202,6.3,11.2,66,0.00,,,0.00,Rainwise IP-100,2013-03-24 18:59:00,
2013-03-24 12:04:00,31.0,21.0,25.76,WSW,247,2.6,12.1,67,0.00,,,0.00,Rainwise IP-100,2013-03-24 19:04:00,
2013-03-24 12:09:00,31.2,21.0,25.76,SSW,202,1.4,6.8,67,0.00,,,0.00,Rainwise IP-100,2013-03-24 19:09:00,
2013-03-24 12:14:00,31.4,21.0,25.77,SSW,202,7.9,7.9,67,0.00,,,0.00,Rainwise IP-100,2013-03-24 19:14:00,
2013-03-24 12:19:00,31.5,23.0,25.76,WSW,247,0.0,11.0,67,0.00,,,0.00,Rainwise IP-100,2013-03-24 19:19:00,
2013-03-24 12:24:00,31.5,23.0,25.76,West,270,4.0,9.8,66,0.00,,,0.00,Rainwise IP-100,2013-03-24 19:24:00,
2013-03-24 12:29:00,31.6,23.0,25.76,WSW,247,1.9,11.0,66,0.00,,,0.00,Rainwise IP-100,2013-03-24 19:29:00,
2013-03-24 12:34:00,31.7,23.0,25.75,SW,225,4.7,11.2,66,0.00,,,0.00,Rainwise IP-100,2013-03-24 19:34:00,
2013-03-24 12:39:00,31.7,23.0,25.75,SSW,202,11.0,12.6,66,0.00,,,0.00,Rainwise IP-100,2013-03-24 19:39:00,
2013-03-24 12:44:00,31.6,23.0,25.75,SW,225,7.0,11.0,65,0.00,,,0.00,Rainwise IP-100,2013-03-24 19:44:00,
2013-03-24 12:49:00,31.7,23.0,25.75,SSW,202,1.6,9.3,65,0.00,,,0.00,Rainwise IP-100,2013-03-24 19:49:00,
2013-03-24 12:54:00,31.8,23.0,25.75,SW,225,4.9,10.5,65,0.00,,,0.00,Rainwise IP-100,2013-03-24 19:54:00,
2013-03-24 12:59:00,31.9,23.0,25.75,SSW,202,8.2,13.1,65,0.00,,,0.00,Rainwise IP-100,2013-03-24 19:59:00,
2013-03-24 13:04:00,31.9,23.0,25.75,SSW,202,8.2,11.2,64,0.00,,,0.00,Rainwise IP-100,2013-03-24 20:04:00,
2013-03-24 13:09:00,31.9,23.0,25.75,SSW,202,3.0,10.5,64,0.00,,,0.00,Rainwise IP-100,2013-03-24 20:09:00,
2013-03-24 13:14:00,32.2,23.0,25.75,WSW,247,1.6,8.9,64,0.00,,,0.00,Rainwise IP-100,2013-03-24 20:14:00,
2013-03-24 13:19:00,32.4,23.0,25.75,WSW,247,4.7,8.2,65,0.00,,,0.00,Rainwise IP-100,2013-03-24 20:19:00,
2013-03-24 13:24:00,32.3,23.0,25.75,SSW,202,3.5,12.6,65,0.00,,,0.00,Rainwise IP-100,2013-03-24 20:24:00,
2013-03-24 13:29:00,32.3,23.0,25.75,SSW,202,4.9,11.0,64,0.00,,,0.00,Rainwise IP-100,2013-03-24 20:29:00,
2013-03-24 13:34:00,32.4,23.0,25.75,SW,225,3.0,11.0,64,0.00,,,0.00,Rainwise IP-100,2013-03-24 20:34:00,
2013-03-24 13:39:00,32.5,23.0,25.75,WSW,247,4.7,11.9,63,0.00,,,0.00,Rainwise IP-100,2013-03-24 20:39:00,
2013-03-24 13:44:00,32.7,23.0,25.75,SSW,202,11.4,11.4,63,0.00,,,0.00,Rainwise IP-100,2013-03-24 20:44:00,
2013-03-24 13:49:00,32.8,23.0,25.75,SSW,202,9.3,11.9,62,0.00,,,0.00,Rainwise IP-100,2013-03-24 20:49:00,
2013-03-24 13:54:00,32.9,23.0,25.75,SW,225,3.7,11.0,62,0.00,,,0.00,Rainwise IP-100,2013-03-24 20:54:00,
2013-03-24 13:59:00,32.9,23.0,25.75,WSW,247,4.9,10.0,62,0.00,,,0.00,Rainwise IP-100,2013-03-24 20:59:00,
2013-03-24 14:04:00,32.9,23.0,25.75,SSW,202,5.8,8.4,62,0.00,,,0.00,Rainwise IP-100,2013-03-24 21:04:00,
2013-03-24 14:09:00,32.9,23.0,25.75,SSW,202,6.3,13.8,62,0.00,,,0.00,Rainwise IP-100,2013-03-24 21:09:00,
2013-03-24 14:14:00,33.1,23.0,25.75,SW,225,6.8,13.1,62,0.00,,,0.00,Rainwise IP-100,2013-03-24 21:14:00,
2013-03-24 14:19:00,33.4,23.0,25.74,SSW,202,9.1,9.3,62,0.00,,,0.00,Rainwise IP-100,2013-03-24 21:19:00,
2013-03-24 14:24:00,33.6,23.0,25.75,WSW,247,4.9,9.6,61,0.00,,,0.00,Rainwise IP-100,2013-03-24 21:24:00,
2013-03-24 14:29:00,33.8,23.0,25.74,SSW,202,5.4,10.5,61,0.00,,,0.00,Rainwise IP-100,2013-03-24 21:29:00,
2013-03-24 14:35:00,34.0,23.0,25.75,SSW,202,4.7,9.3,60,0.00,,,0.00,Rainwise IP-100,2013-03-24 21:35:00,
2013-03-24 14:40:00,34.0,23.0,25.75,SW,225,2.3,8.9,60,0.00,,,0.00,Rainwise IP-100,2013-03-24 21:40:00,
2013-03-24 14:45:00,33.9,23.0,25.75,WSW,247,4.7,10.3,60,0.00,,,0.00,Rainwise IP-100,2013-03-24 21:45:00,
2013-03-24 14:50:00,33.7,23.0,25.74,SSW,202,3.7,9.6,60,0.00,,,0.00,Rainwise IP-100,2013-03-24 21:50:00,
2013-03-24 14:55:00,33.8,23.0,25.74,WNW,292,1.4,11.2,61,0.00,,,0.00,Rainwise IP-100,2013-03-24 21:55:00,
2013-03-24 15:00:00,34.0,23.0,25.74,WNW,292,0.0,6.8,60,0.00,,,0.00,Rainwise IP-100,2013-03-24 22:00:00,
2013-03-24 15:05:00,34.2,23.0,25.74,WSW,247,3.7,7.9,60,0.00,,,0.00,Rainwise IP-100,2013-03-24 22:05:00,
2013-03-24 15:10:00,34.3,23.0,25.74,SW,225,3.0,6.3,61,0.00,,,0.00,Rainwise IP-100,2013-03-24 22:10:00,
2013-03-24 15:15:00,34.4,23.0,25.74,West,270,5.4,8.9,61,0.00,,,0.00,Rainwise IP-100,2013-03-24 22:15:00,
2013-03-24 15:20:00,34.4,23.0,25.74,SW,225,3.5,7.2,60,0.00,,,0.00,Rainwise IP-100,2013-03-24 22:20:00,
2013-03-24 15:25:00,34.4,23.0,25.74,WSW,247,3.0,8.6,61,0.00,,,0.00,Rainwise IP-100,2013-03-24 22:25:00,
2013-03-24 15:30:00,34.3,23.0,25.74,SW,225,5.6,7.7,61,0.00,,,0.00,Rainwise IP-100,2013-03-24 22:30:00,
2013-03-24 15:35:00,34.3,23.0,25.73,SSW,202,4.2,7.0,60,0.06,,,0.01,Rainwise IP-100,2013-03-24 22:35:00,
2013-03-24 15:40:00,34.6,23.0,25.73,SSW,202,4.2,6.3,61,0.06,,,0.01,Rainwise IP-100,2013-03-24 22:40:00,
2013-03-24 15:45:00,34.7,23.0,25.73,SSW,202,4.7,8.4,61,0.00,,,0.01,Rainwise IP-100,2013-03-24 22:45:00,
2013-03-24 15:50:00,34.5,23.0,25.73,WSW,247,4.7,9.1,60,0.00,,,0.01,Rainwise IP-100,2013-03-24 22:50:00,
2013-03-24 15:55:00,34.3,23.0,25.73,WNW,292,2.6,8.4,60,0.00,,,0.01,Rainwise IP-100,2013-03-24 22:55:00,
2013-03-24 16:00:00,34.4,23.0,25.72,WSW,247,0.0,7.7,60,0.00,,,0.01,Rainwise IP-100,2013-03-24 23:00:00,
2013-03-24 16:05:00,34.8,23.0,25.72,WSW,247,3.0,8.2,59,0.00,,,0.01,Rainwise IP-100,2013-03-24 23:05:00,
2013-03-24 16:10:00,35.1,23.0,25.72,WSW,247,2.8,8.6,59,0.00,,,0.01,Rainwise IP-100,2013-03-24 23:10:00,
2013-03-24 16:15:00,35.4,23.0,25.72,WSW,247,1.6,6.1,59,0.00,,,0.01,Rainwise IP-100,2013-03-24 23:15:00,
2013-03-24 16:20:00,35.9,23.0,25.73,SW,225,2.6,7.2,59,0.00,,,0.01,Rainwise IP-100,2013-03-24 23:20:00,
2013-03-24 16:25:00,36.2,23.0,25.73,WSW,247,6.1,9.6,57,0.00,,,0.01,Rainwise IP-100,2013-03-24 23:25:00,
2013-03-24 16:30:00,36.1,23.0,25.73,West,270,1.6,6.8,57,0.06,,,0.02,Rainwise IP-100,2013-03-24 23:30:00,
2013-03-24 16:35:00,36.4,23.0,25.72,West,270,3.0,9.3,58,0.06,,,0.02,Rainwise IP-100,2013-03-24 23:35:00,
2013-03-24 16:40:00,36.5,24.0,25.72,WSW,247,2.3,4.4,58,0.00,,,0.02,Rainwise IP-100,2013-03-24 23:40:00,
2013-03-24 16:45:00,36.0,23.0,25.72,SSW,202,4.2,9.1,59,0.00,,,0.02,Rainwise IP-100,2013-03-24 23:45:00,
2013-03-24 16:50:00,36.0,23.0,25.71,WSW,247,2.1,5.4,58,0.00,,,0.03,Rainwise IP-100,2013-03-24 23:50:00,
2013-03-24 16:55:00,36.3,23.0,25.71,West,270,1.2,5.8,59,0.06,,,0.03,Rainwise IP-100,2013-03-24 23:55:00,
2013-03-24 17:00:00,36.3,23.0,25.71,WSW,247,4.0,5.4,59,0.06,,,0.03,Rainwise IP-100,2013-03-25 00:00:00,
2013-03-24 17:05:00,35.8,23.0,25.71,SSW,202,5.6,8.9,59,0.00,,,0.03,Rainwise IP-100,2013-03-25 00:05:00,
2013-03-24 17:10:00,35.3,23.0,25.71,SSW,202,1.4,8.2,59,0.00,,,0.03,Rainwise IP-100,2013-03-25 00:10:00,
2013-03-24 17:15:00,35.2,23.0,25.71,SSW,202,3.0,6.1,60,0.00,,,0.03,Rainwise IP-100,2013-03-25 00:15:00,
2013-03-24 17:20:00,35.1,23.0,25.71,WSW,247,1.6,6.8,59,0.00,,,0.03,Rainwise IP-100,2013-03-25 00:20:00,
2013-03-24 17:25:00,35.1,23.0,25.71,SW,225,2.1,2.8,59,0.06,,,0.04,Rainwise IP-100,2013-03-25 00:25:00,
2013-03-24 17:30:00,34.9,23.0,25.71,SSW,202,3.7,5.1,62,0.06,,,0.04,Rainwise IP-100,2013-03-25 00:30:00,
2013-03-24 17:35:00,34.6,23.0,25.70,East,90,0.0,7.0,61,0.00,,,0.04,Rainwise IP-100,2013-03-25 00:35:00,
2013-03-24 17:40:00,34.7,23.0,25.71,WSW,247,1.6,7.9,59,0.00,,,0.04,Rainwise IP-100,2013-03-25 00:40:00,
2013-03-24 17:45:00,34.5,23.0,25.70,SSW,202,3.7,10.3,59,0.00,,,0.04,Rainwise IP-100,2013-03-25 00:45:00,
2013-03-24 17:50:00,34.1,23.0,25.70,SSW,202,1.2,7.9,59,0.00,,,0.04,Rainwise IP-100,2013-03-25 00:50:00,
2013-03-24 17:55:00,34.2,23.0,25.70,SW,225,1.9,4.4,58,0.00,,,0.04,Rainwise IP-100,2013-03-25 00:55:00,
2013-03-24 18:00:00,34.2,23.0,25.70,ESE,112,1.9,5.6,58,0.00,,,0.04,Rainwise IP-100,2013-03-25 01:00:00,
2013-03-24 18:05:00,34.1,23.0,25.70,North,360,0.0,5.8,59,0.00,,,0.04,Rainwise IP-100,2013-03-25 01:05:00,
2013-03-24 18:10:00,33.9,23.0,25.70,SE,135,0.0,4.2,60,0.06,,,0.05,Rainwise IP-100,2013-03-25 01:10:00,
2013-03-24 18:15:00,33.2,23.0,25.70,SW,225,0.0,3.7,63,0.06,,,0.05,Rainwise IP-100,2013-03-25 01:15:00,
2013-03-24 18:20:00,32.8,24.0,25.70,SW,225,0.0,0.0,67,0.00,,,0.05,Rainwise IP-100,2013-03-25 01:20:00,
2013-03-24 18:25:00,32.2,24.0,25.69,SE,135,1.4,2.1,72,0.00,,,0.05,Rainwise IP-100,2013-03-25 01:25:00,
2013-03-24 18:30:00,31.4,24.0,25.69,SE,135,2.6,3.7,78,0.00,,,0.05,Rainwise IP-100,2013-03-25 01:30:00,
2013-03-24 18:35:00,31.2,24.0,25.69,SSW,202,0.0,4.2,76,0.00,,,0.05,Rainwise IP-100,2013-03-25 01:35:00,
2013-03-24 18:40:00,31.2,24.0,25.69,SSW,202,0.0,3.7,74,0.00,,,0.05,Rainwise IP-100,2013-03-25 01:40:00,
2013-03-24 18:45:00,30.7,24.0,25.69,SSE,157,0.0,2.3,77,0.00,,,0.05,Rainwise IP-100,2013-03-25 01:45:00,
2013-03-24 18:50:00,30.4,24.0,25.68,ESE,112,0.0,4.2,79,0.00,,,0.05,Rainwise IP-100,2013-03-25 01:50:00,
2013-03-24 18:55:00,30.6,24.0,25.69,SE,135,3.3,7.5,75,0.00,,,0.05,Rainwise IP-100,2013-03-25 01:55:00,
2013-03-24 19:00:00,30.9,23.0,25.69,SE,135,0.0,5.8,70,0.00,,,0.05,Rainwise IP-100,2013-03-25 02:00:00,
2013-03-24 19:05:00,30.5,24.0,25.69,SSE,157,0.0,1.9,74,0.00,,,0.05,Rainwise IP-100,2013-03-25 02:05:00,
2013-03-24 19:10:00,30.1,24.0,25.68,SE,135,4.7,5.4,75,0.00,,,0.05,Rainwise IP-100,2013-03-25 02:10:00,
2013-03-24 19:15:00,30.2,23.0,25.69,SSE,157,0.0,6.3,73,0.00,,,0.05,Rainwise IP-100,2013-03-25 02:15:00,
2013-03-24 19:20:00,30.0,24.0,25.69,ESE,112,1.9,3.3,74,0.00,,,0.05,Rainwise IP-100,2013-03-25 02:20:00,
2013-03-24 19:25:00,29.9,23.0,25.68,South,180,0.0,5.4,72,0.00,,,0.05,Rainwise IP-100,2013-03-25 02:25:00,
2013-03-24 19:30:00,29.8,23.0,25.68,SSW,202,0.0,5.1,72,0.00,,,0.05,Rainwise IP-100,2013-03-25 02:30:00,
2013-03-24 19:35:00,29.3,23.0,25.68,SSE,157,0.0,4.2,75,0.00,,,0.05,Rainwise IP-100,2013-03-25 02:35:00,
2013-03-24 19:40:00,29.0,23.0,25.68,SSE,157,0.0,2.1,76,0.00,,,0.05,Rainwise IP-100,2013-03-25 02:40:00,
2013-03-24 19:45:00,28.9,23.0,25.68,SSW,202,2.3,7.0,75,0.00,,,0.05,Rainwise IP-100,2013-03-25 02:45:00,
2013-03-24 19:50:00,28.8,23.0,25.68,WNW,292,0.0,3.3,77,0.00,,,0.05,Rainwise IP-100,2013-03-25 02:50:00,
2013-03-24 19:55:00,28.3,23.0,25.68,South,180,1.2,4.7,79,0.00,,,0.05,Rainwise IP-100,2013-03-25 02:55:00,
2013-03-24 20:00:00,27.9,23.0,25.68,SSW,202,3.5,3.5,81,0.00,,,0.05,Rainwise IP-100,2013-03-25 03:00:00,
2013-03-24 20:05:00,27.9,23.0,25.68,SSW,202,1.2,4.0,80,0.00,,,0.05,Rainwise IP-100,2013-03-25 03:05:00,
2013-03-24 20:10:00,27.9,23.0,25.68,SSW,202,0.0,1.4,80,0.00,,,0.05,Rainwise IP-100,2013-03-25 03:10:00,
2013-03-24 20:15:00,27.7,23.0,25.68,SSE,157,2.1,2.3,82,0.00,,,0.05,Rainwise IP-100,2013-03-25 03:15:00,
2013-03-24 20:20:00,27.5,23.0,25.68,SE,135,1.9,3.3,83,0.00,,,0.05,Rainwise IP-100,2013-03-25 03:20:00,
2013-03-24 20:25:00,27.4,23.0,25.68,SE,135,1.2,3.0,83,0.00,,,0.05,Rainwise IP-100,2013-03-25 03:25:00,
2013-03-24 20:30:00,27.3,23.0,25.68,SE,135,1.4,3.5,83,0.00,,,0.05,Rainwise IP-100,2013-03-25 03:30:00,
2013-03-24 20:35:00,27.4,23.0,25.68,SE,135,1.4,3.7,82,0.00,,,0.05,Rainwise IP-100,2013-03-25 03:35:00,
2013-03-24 20:40:00,27.3,23.0,25.68,SE,135,1.6,4.0,82,0.00,,,0.05,Rainwise IP-100,2013-03-25 03:40:00,
2013-03-24 20:45:00,27.3,23.0,25.68,SE,135,1.4,4.2,81,0.00,,,0.05,Rainwise IP-100,2013-03-25 03:45:00,
2013-03-24 20:50:00,27.3,23.0,25.68,SE,135,4.2,4.4,80,0.00,,,0.05,Rainwise IP-100,2013-03-25 03:50:00,
2013-03-24 20:55:00,27.3,23.0,25.68,SE,135,2.3,5.4,79,0.00,,,0.05,Rainwise IP-100,2013-03-25 03:55:00,
2013-03-24 21:00:00,27.4,23.0,25.68,SE,135,1.6,4.0,78,0.00,,,0.05,Rainwise IP-100,2013-03-25 04:00:00,
2013-03-24 21:05:00,27.3,23.0,25.68,SE,135,2.6,4.0,78,0.00,,,0.05,Rainwise IP-100,2013-03-25 04:05:00,
2013-03-24 21:07:00,27.1,23.0,25.68,SE,135,0.0,4.0,79,0.00,,,0.05,Rainwise IP-100,2013-03-25 04:07:00,
2013-03-24 21:11:00,27.0,23.0,25.68,ESE,112,0.0,5.4,79,0.00,,,0.05,Rainwise IP-100,2013-03-25 04:11:00,
2013-03-24 21:16:00,27.0,23.0,25.68,SE,135,1.9,4.2,78,0.00,,,0.05,Rainwise IP-100,2013-03-25 04:16:00,
2013-03-24 21:21:00,26.9,23.0,25.69,SE,135,1.6,3.0,78,0.00,,,0.05,Rainwise IP-100,2013-03-25 04:21:00,
2013-03-24 21:26:00,26.8,23.0,25.69,SE,135,2.3,4.0,79,0.00,,,0.05,Rainwise IP-100,2013-03-25 04:26:00,
2013-03-24 21:31:00,26.9,23.0,25.69,SE,135,2.6,4.2,78,0.00,,,0.05,Rainwise IP-100,2013-03-25 04:31:00,
2013-03-24 21:36:00,26.8,23.0,25.69,SE,135,2.8,4.2,78,0.00,,,0.05,Rainwise IP-100,2013-03-25 04:36:00,
2013-03-24 21:41:00,26.6,23.0,25.69,SE,135,1.2,4.0,79,0.00,,,0.05,Rainwise IP-100,2013-03-25 04:41:00,
2013-03-24 21:46:00,26.5,23.0,25.68,SSE,157,1.9,3.7,79,0.00,,,0.05,Rainwise IP-100,2013-03-25 04:46:00,
2013-03-24 21:51:00,26.6,23.0,25.69,SE,135,0.0,4.9,77,0.00,,,0.05,Rainwise IP-100,2013-03-25 04:51:00,
2013-03-24 21:56:00,26.6,23.0,25.68,SE,135,1.6,5.1,77,0.00,,,0.05,Rainwise IP-100,2013-03-25 04:56:00,
2013-03-24 22:01:00,26.6,23.0,25.68,SE,135,4.0,4.9,77,0.00,,,0.05,Rainwise IP-100,2013-03-25 05:01:00,
2013-03-24 22:06:00,26.6,21.0,25.68,SE,135,3.7,5.6,76,0.00,,,0.05,Rainwise IP-100,2013-03-25 05:06:00,
2013-03-24 22:11:00,26.5,23.0,25.68,SE,135,3.3,4.7,77,0.00,,,0.05,Rainwise IP-100,2013-03-25 05:11:00,
2013-03-24 22:16:00,26.3,21.0,25.69,SE,135,2.8,5.8,78,0.00,,,0.05,Rainwise IP-100,2013-03-25 05:16:00,
2013-03-24 22:21:00,26.2,21.0,25.68,SE,135,1.9,4.7,79,0.00,,,0.05,Rainwise IP-100,2013-03-25 05:21:00,
2013-03-24 22:26:00,26.1,21.0,25.68,SSE,157,0.0,4.4,79,0.00,,,0.05,Rainwise IP-100,2013-03-25 05:26:00,
2013-03-24 22:31:00,25.9,21.0,25.68,SE,135,1.9,4.2,79,0.00,,,0.05,Rainwise IP-100,2013-03-25 05:31:00,
2013-03-24 22:36:00,25.8,21.0,25.68,SE,135,3.5,5.1,79,0.00,,,0.05,Rainwise IP-100,2013-03-25 05:36:00,
2013-03-24 22:42:00,25.8,21.0,25.68,SE,135,4.2,5.6,80,0.00,,,0.05,Rainwise IP-100,2013-03-25 05:42:00,
2013-03-24 22:47:00,25.9,21.0,25.68,ESE,112,0.0,4.4,80,0.00,,,0.05,Rainwise IP-100,2013-03-25 05:47:00,
2013-03-24 22:52:00,26.0,21.0,25.68,SE,135,1.4,6.3,79,0.00,,,0.05,Rainwise IP-100,2013-03-25 05:52:00,
2013-03-24 22:57:00,25.9,21.0,25.68,SSE,157,0.0,4.7,78,0.00,,,0.05,Rainwise IP-100,2013-03-25 05:57:00,
2013-03-24 23:02:00,25.8,21.0,25.68,SE,135,0.0,4.0,79,0.00,,,0.05,Rainwise IP-100,2013-03-25 06:02:00,
2013-03-24 23:07:00,25.5,21.0,25.68,SE,135,3.3,4.0,81,0.00,,,0.05,Rainwise IP-100,2013-03-25 06:07:00,
2013-03-24 23:12:00,25.5,21.0,25.68,SSE,157,0.0,4.7,81,0.00,,,0.05,Rainwise IP-100,2013-03-25 06:12:00,
2013-03-24 23:17:00,25.5,21.0,25.68,SE,135,1.9,3.7,81,0.00,,,0.05,Rainwise IP-100,2013-03-25 06:17:00,
2013-03-24 23:22:00,25.5,21.0,25.68,SE,135,3.5,4.9,81,0.00,,,0.05,Rainwise IP-100,2013-03-25 06:22:00,
2013-03-24 23:27:00,25.4,21.0,25.68,SE,135,0.0,4.9,80,0.00,,,0.05,Rainwise IP-100,2013-03-25 06:27:00,
2013-03-24 23:32:00,25.2,21.0,25.68,SE,135,1.9,4.2,81,0.00,,,0.05,Rainwise IP-100,2013-03-25 06:32:00,
2013-03-24 23:37:00,25.2,21.0,25.68,SE,135,1.4,4.0,82,0.00,,,0.05,Rainwise IP-100,2013-03-25 06:37:00,
2013-03-24 23:42:00,25.1,23.0,25.68,SE,135,2.1,4.2,83,0.00,,,0.05,Rainwise IP-100,2013-03-25 06:42:00,
2013-03-24 23:47:00,24.8,23.0,25.68,SE,135,2.3,4.0,84,0.00,,,0.05,Rainwise IP-100,2013-03-25 06:47:00,
2013-03-24 23:52:00,24.8,23.0,25.68,SE,135,2.8,4.4,84,0.00,,,0.05,Rainwise IP-100,2013-03-25 06:52:00,
2013-03-24 23:57:00,25.0,23.0,25.68,SSE,157,1.4,5.1,84,0.00,,,0.05,Rainwise IP-100,2013-03-25 06:57:00,